Location: Unspecified
(49.2170°N, 0.0000°E)
Time: 14:09:45
(UTC+00:00)

Transit 2A - Pass Details

Date: 25 June 2019
Orbit: 594 x 965 km, 66.7° (Epoch: 17 July)

Event Time Altitude Azimuth Distance (km) Brightness Sun altitude
Exits shadow 23:54:45 19° 217° (SW) 2,136 7.8 -17.4°
Maximum altitude 23:59:34 86° 305° (NW) 964 6.5 -17.4°
Drops below altitude 10° 00:05:48 10° 36° (NE) 2,625 9.6 -17.4°
Sets 00:08:16 0° 37° (NE) 3,530 10.4 -17.4°
